| time (UTC) | temp C | wind direction | speed KPH | gust KPH | rain 1hr cm | rain 24hr cm | rain mn cm | humidity % | barometer mb |
| 20260505211741 | 2 | 62 | 8.0 | 20.9 | 0.00 | 0.00 | 0.25 | 77 | 1012.8 |
| 20260505210739 | 2 | 56 | 9.7 | 14.5 | 0.00 | 0.00 | 0.25 | 81 | 1013.1 |
| 20260505205738 | 2 | 115 | 4.8 | 17.7 | 0.00 | 0.00 | 0.25 | 84 | 1013.0 |
| 20260505204737 | 3 | 113 | 4.8 | 19.3 | 0.00 | 0.00 | 0.25 | 81 | 1013.1 |
| 20260505203735 | 2 | 51 | 3.2 | 27.4 | 0.00 | 0.00 | 0.25 | 82 | 1013.2 |
| 20260505202734 | 2 | 118 | 6.4 | 14.5 | 0.00 | 0.00 | 0.25 | 80 | 1013.3 |
| 20260505201733 | 2 | 15 | 4.8 | 11.3 | 0.00 | 0.00 | 0.25 | 83 | 1013.3 |
| 20260505200731 | 2 | 97 | 6.4 | 20.9 | 0.00 | 0.00 | 0.25 | 83 | 1013.5 |
| 20260505195730 | 2 | 28 | 4.8 | 17.7 | 0.00 | 0.00 | 0.25 | 82 | 1013.3 |
| 20260505194730 | 2 | 69 | 6.4 | 17.7 | 0.00 | 0.00 | 0.25 | 83 | 1013.3 |
| 20260505193727 | 2 | 103 | 12.9 | 24.1 | 0.00 | 0.00 | 0.25 | 84 | 1013.3 |
| 20260505192726 | 2 | 31 | 3.2 | 14.5 | 0.00 | 0.00 | 0.25 | 87 | 1013.3 |
| 20260505191724 | 2 | 62 | 14.5 | 19.3 | 0.00 | 0.00 | 0.25 | 87 | 1013.5 |
| 20260505190723 | 2 | 53 | 8.0 | 19.3 | 0.00 | 0.00 | 0.25 | 88 | 1013.5 |
| 20260505185721 | 2 | 58 | 8.0 | 19.3 | 0.00 | 0.00 | 0.25 | 91 | 1013.5 |
| 20260505184720 | 2 | 21 | 6.4 | 12.9 | 0.08 | 0.00 | 0.25 | 93 | 1013.7 |
| 20260505183719 | 2 | 73 | 6.4 | 17.7 | 0.08 | 0.00 | 0.25 | 96 | 1013.7 |
| 20260505182717 | 2 | 77 | 12.9 | 25.7 | 0.08 | 0.00 | 0.25 | 96 | 1013.7 |
| 20260505181716 | 2 | 69 | 11.3 | 17.7 | 0.08 | 0.00 | 0.25 | 98 | 1013.6 |
| 20260505180715 | 2 | 79 | 6.4 | 11.3 | 0.08 | 0.00 | 0.25 | 99 | 1013.8 |
| 20260505175713 | 2 | 117 | 3.2 | 19.3 | 0.08 | 0.00 | 0.25 | 99 | 1013.8 |
| 20260505174712 | 2 | 115 | 11.3 | 22.5 | 0.03 | 0.00 | 0.25 | 99 | 1013.8 |
| 20260505173710 | 2 | 66 | 8.0 | 12.9 | 0.03 | 0.00 | 0.25 | 100 | 1013.8 |
| 20260505172709 | 1 | 75 | 4.8 | 11.3 | 0.03 | 0.00 | 0.25 | 100 | 1014.0 |
| 20260505171708 | 1 | 63 | 4.8 | 11.3 | 0.03 | 0.00 | 0.25 | 100 | 1014.1 |
| 20260505170706 | 1 | 30 | 0.0 | 8.0 | 0.03 | 0.00 | 0.23 | 99 | 1014.2 |
| 20260505165703 | 1 | 93 | 1.6 | 11.3 | 0.03 | 0.00 | 0.20 | 99 | 1014.2 |
| 20260505164701 | 1 | 83 | 4.8 | 8.0 | 0.00 | 0.00 | 0.18 | 97 | 1014.2 |
| 20260505163700 | 1 | 52 | 1.6 | 4.8 | 0.00 | 0.00 | 0.18 | 97 | 1014.2 |
| 20260505162659 | 2 | 110 | 3.2 | 11.3 | 0.00 | 0.00 | 0.15 | 96 | 1014.4 |
| 20260505161657 | 2 | 55 | 0.0 | 3.2 | 0.00 | 0.00 | 0.15 | 96 | 1014.2 |
| 20260505160656 | 2 | 76 | 3.2 | 9.7 | 0.00 | 0.00 | 0.15 | 96 | 1014.4 |
| 20260505152650 | 1 | 35 | 4.8 | 9.7 | 0.03 | 0.00 | 0.15 | 98 | 1014.4 |
| 20260505151649 | 1 | 58 | 4.8 | 11.3 | 0.03 | 0.00 | 0.15 | 99 | 1014.4 |
| 20260505150648 | 2 | 100 | 8.0 | 17.7 | 0.03 | 0.00 | 0.15 | 99 | 1014.2 |
| 20260505140638 | 1 | 76 | 4.8 | 8.0 | 0.05 | 0.00 | 0.13 | 100 | 1014.4 |
| 20260505124627 | 1 | 359 | 1.6 | 3.2 | 0.00 | 0.00 | 0.08 | 98 | 1013.6 |
| 20260505123626 | 1 | 79 | 0.0 | 4.8 | 0.00 | 0.00 | 0.08 | 98 | 1013.5 |
| 20260505122628 | 2 | 73 | 3.2 | 6.4 | 0.00 | 0.00 | 0.08 | 97 | 1013.3 |
| 20260505121623 | 2 | 10 | 0.0 | 4.8 | 0.00 | 0.00 | 0.08 | 97 | 1013.2 |
| 20260505120622 | 2 | 56 | 0.0 | 11.3 | 0.00 | 0.00 | 0.05 | 97 | 1013.2 |
| 20260505115620 | 2 | 115 | 3.2 | 11.3 | 0.00 | 0.00 | 0.05 | 96 | 1013.1 |
| 20260505114619 | 2 | 72 | 1.6 | 6.4 | 0.00 | 0.00 | 0.05 | 96 | 1013.0 |
| 20260505113617 | 2 | 97 | 1.6 | 11.3 | 0.00 | 0.00 | 0.05 | 96 | 1013.1 |
| 20260505112616 | 2 | 39 | 3.2 | 11.3 | 0.00 | 0.00 | 0.05 | 96 | 1013.0 |
| 20260505111615 | 2 | 229 | 3.2 | 11.3 | 0.00 | 0.00 | 0.05 | 97 | 1013.0 |
| 20260505110613 | 2 | 4 | 0.0 | 6.4 | 0.00 | 0.00 | 0.05 | 97 | 1012.8 |
| 20260505101606 | 2 | 38 | 1.6 | 6.4 | 0.00 | 0.00 | 0.05 | 92 | 1012.8 |
| 20260505100605 | 2 | 359 | 3.2 | 9.7 | 0.00 | 0.00 | 0.05 | 90 | 1013.0 |
| 20260505095604 | 2 | 32 | 1.6 | 11.3 | 0.00 | 0.00 | 0.05 | 90 | 1013.0 |
| 20260505094602 | 2 | 11 | 3.2 | 9.7 | 0.00 | 0.00 | 0.05 | 89 | 1012.8 |
| 20260505093601 | 2 | 20 | 3.2 | 11.3 | 0.00 | 0.00 | 0.05 | 90 | 1012.7 |
| 20260505092559 | 3 | 38 | 3.2 | 8.0 | 0.00 | 0.00 | 0.05 | 91 | 1012.6 |
| 20260505091558 | 3 | 107 | 1.6 | 14.5 | 0.00 | 0.00 | 0.05 | 91 | 1012.7 |
| 20260505090557 | 3 | 45 | 3.2 | 14.5 | 0.00 | 0.00 | 0.05 | 91 | 1012.4 |
| 20260505085555 | 3 | 10 | 1.6 | 12.9 | 0.00 | 0.00 | 0.05 | 92 | 1012.4 |
| 20260505084554 | 3 | 34 | 1.6 | 8.0 | 0.00 | 0.00 | 0.05 | 94 | 1012.4 |
| 20260505083552 | 3 | 7 | 3.2 | 11.3 | 0.00 | 0.00 | 0.05 | 93 | 1012.7 |
| 20260505082551 | 3 | 72 | 3.2 | 9.7 | 0.00 | 0.00 | 0.05 | 94 | 1012.8 |
| 20260505081550 | 3 | 66 | 4.8 | 9.7 | 0.00 | 0.00 | 0.05 | 95 | 1012.8 |
| 20260505080548 | 4 | 49 | 1.6 | 14.5 | 0.00 | 0.00 | 0.05 | 95 | 1012.8 |
| 20260505075547 | 4 | 25 | 1.6 | 11.3 | 0.00 | 0.00 | 0.05 | 95 | 1012.7 |
| 20260505074545 | 4 | 55 | 0.0 | 11.3 | 0.05 | 0.00 | 0.05 | 95 | 1012.7 |
| 20260505073544 | 4 | 134 | 4.8 | 9.7 | 0.05 | 0.00 | 0.05 | 96 | 1012.4 |
| 20260505072543 | 4 | 87 | 3.2 | 14.5 | 0.05 | 0.00 | 0.05 | 96 | 1012.4 |
| 20260505071541 | 5 | 38 | 3.2 | 8.0 | 0.05 | 0.00 | 0.05 | 96 | 1012.6 |
| 20260505070540 | 5 | 34 | 1.6 | 4.8 | 0.05 | 0.00 | 0.05 | 96 | 1012.4 |
| 20260505065538 | 5 | 38 | 1.6 | 4.8 | 0.05 | 0.00 | 0.05 | 96 | 1012.4 |
| 20260505064537 | 5 | 155 | 3.2 | 11.3 | 0.00 | 0.00 | 0.05 | 96 | 1012.3 |
| 20260505063536 | 5 | 31 | 4.8 | 12.9 | 0.00 | 0.00 | 0.05 | 94 | 1012.2 |
| 20260505062534 | 5 | 87 | 9.7 | 19.3 | 0.00 | 0.00 | 0.03 | 93 | 1012.1 |
| 20260505061533 | 6 | 17 | 3.2 | 14.5 | 0.00 | 0.00 | 0.00 | 90 | 1012.6 |
| 20260505060531 | 6 | 38 | 3.2 | 11.3 | 0.00 | 0.00 | 0.00 | 90 | 1012.3 |
| 20260505055530 | 6 | 98 | 0.0 | 6.4 | 0.00 | 0.00 | 0.00 | 90 | 1012.3 |
| 20260505054529 | 6 | 11 | 3.2 | 16.1 | 0.00 | 0.00 | 0.00 | 89 | 1012.3 |
| 20260505053527 | 6 | 23 | 4.8 | 9.7 | 0.00 | 0.00 | 0.00 | 87 | 1012.3 |
| 20260505052526 | 6 | 44 | 4.8 | 12.9 | 0.00 | 0.00 | 0.00 | 85 | 1012.3 |
| 20260505051525 | 6 | 69 | 8.0 | 20.9 | 0.00 | 0.00 | 0.00 | 81 | 1012.3 |
| 20260505050523 | 7 | 114 | 3.2 | 6.4 | 0.00 | 0.00 | 0.00 | 81 | 1012.3 |
| 20260505041516 | 7 | 66 | 4.8 | 9.7 | 0.00 | 0.00 | 0.00 | 76 | 1012.1 |
| 20260505040515 | 8 | 91 | 3.2 | 11.3 | 0.00 | 0.00 | 0.00 | 75 | 1011.7 |
| 20260505035513 | 8 | 86 | 1.6 | 9.7 | 0.00 | 0.00 | 0.00 | 78 | 1011.6 |
| 20260505034512 | 8 | 28 | 1.6 | 11.3 | 0.00 | 0.00 | 0.00 | 82 | 1011.3 |
| 20260505033510 | 8 | 142 | 4.8 | 11.3 | 0.00 | 0.00 | 0.00 | 81 | 1010.9 |
| 20260505032509 | 8 | 117 | 6.4 | 11.3 | 0.00 | 0.00 | 0.00 | 80 | 1010.4 |
| 20260505031508 | 8 | 122 | 4.8 | 8.0 | 0.00 | 0.00 | 0.00 | 77 | 1010.5 |
| 20260505030506 | 9 | 127 | 3.2 | 11.3 | 0.00 | 0.00 | 0.00 | 75 | 1010.4 |
| 20260505025500 | 9 | 163 | 3.2 | 16.1 | 0.00 | 0.00 | 0.00 | 72 | 1010.3 |
| 20260505024458 | 9 | 125 | 3.2 | 0.0 | 0.00 | 0.00 | 0.00 | 69 | 1009.9 |
| 20260505023457 | 9 | 203 | 0.0 | 0.0 | 0.00 | 0.00 | 0.00 | 66 | 1009.7 |
| 20260505022456 | 10 | 203 | 0.0 | 0.0 | 0.00 | 0.00 | 0.00 | 64 | 1009.5 |
| 20260505021454 | 10 | 203 | 1.6 | 3.2 | 0.00 | 0.00 | 0.00 | 64 | 1009.4 |
| 20260505020453 | 10 | 240 | 0.0 | 0.0 | 0.00 | 0.00 | 0.00 | 62 | 1009.5 |
| 20260505015451 | 10 | 238 | 0.0 | 4.8 | 0.00 | 0.00 | 0.00 | 63 | 1009.4 |
| 20260505014450 | 11 | 107 | 0.0 | 1.6 | 0.00 | 0.00 | 0.00 | 62 | 1009.5 |
| 20260505013449 | 11 | 156 | 0.0 | 8.0 | 0.00 | 0.00 | 0.00 | 60 | 1009.5 |
| 20260505012447 | 12 | 120 | 0.0 | 9.7 | 0.00 | 0.00 | 0.00 | 54 | 1009.3 |
| 20260505012321 | 12 | 167 | 3.2 | 17.7 | 0.00 | 0.00 | 0.00 | 50 | 1009.3 |
| 20260505011446 | 12 | 167 | 3.2 | 17.7 | 0.00 | 0.00 | 0.00 | 50 | 1009.3 |
| 20260505010445 | 13 | 238 | 3.2 | 20.9 | 0.00 | 0.00 | 0.00 | 53 | 1009.4 |
| 20260505005443 | 12 | 284 | 0.0 | 19.3 | 0.00 | 0.00 | 0.00 | 52 | 1009.3 |
| 20260505004442 | 13 | 262 | 0.0 | 9.7 | 0.00 | 0.00 | 0.00 | 45 | 1010.2 |
| 20260505004313 | 16 | 114 | 6.4 | 12.9 | 0.00 | 0.00 | 0.00 | 35 | 1008.6 |
| 20260505003440 | 14 | 21 | 1.6 | 17.7 | 0.00 | 0.00 | 0.00 | 37 | 1009.4 |
| 20260505002439 | 14 | 21 | 4.8 | 12.9 | 0.00 | 0.00 | 0.00 | 38 | 1009.0 |
| 20260505001438 | 15 | 23 | 6.4 | 12.9 | 0.00 | 0.00 | 0.00 | 37 | 1009.0 |
| 20260505000436 | 15 | 77 | 1.6 | 12.9 | 0.00 | 0.00 | 0.00 | 36 | 1008.9 |
| 20260504235435 | 15 | 187 | 3.2 | 17.7 | 0.00 | 0.00 | 0.00 | 36 | 1008.5 |
| 20260504234433 | 16 | 114 | 6.4 | 12.9 | 0.00 | 0.00 | 0.00 | 35 | 1008.6 |
| 20260504233432 | 15 | 107 | 8.0 | 12.9 | 0.00 | 0.00 | 0.00 | 35 | 1008.8 |
| 20260504232431 | 15 | 84 | 4.8 | 9.7 | 0.00 | 0.00 | 0.00 | 36 | 1008.5 |
| 20260504231429 | 15 | 117 | 3.2 | 12.9 | 0.00 | 0.00 | 0.00 | 37 | 1008.4 |
| 20260504230428 | 16 | 17 | 3.2 | 16.1 | 0.00 | 0.00 | 0.00 | 38 | 1008.4 |
| 20260504225951 | 16 | 94 | 4.8 | 14.5 | 0.00 | 0.00 | 0.00 | 31 | 1008.5 |
| 20260504225426 | 16 | 94 | 4.8 | 14.5 | 0.00 | 0.00 | 0.00 | 31 | 1008.5 |
| 20260504224425 | 17 | 98 | 14.5 | 14.5 | 0.00 | 0.00 | 0.00 | 29 | 1008.3 |
| 20260504223424 | 17 | 125 | 4.8 | 12.9 | 0.00 | 0.00 | 0.00 | 29 | 1008.4 |
| 20260504222422 | 17 | 113 | 6.4 | 14.5 | 0.00 | 0.00 | 0.00 | 27 | 1008.4 |
| 20260504221421 | 18 | 100 | 9.7 | 11.3 | 0.00 | 0.00 | 0.00 | 25 | 1008.5 |
| 20260504220419 | 19 | 134 | 1.6 | 11.3 | 0.00 | 0.00 | 0.00 | 25 | 1008.8 |
| 20260504215418 | 18 | 127 | 0.0 | 14.5 | 0.00 | 0.00 | 0.00 | 26 | 1008.6 |
| 20260504214417 | 18 | 160 | 4.8 | 9.7 | 0.00 | 0.00 | 0.00 | 28 | 1009.0 |
| 20260504213415 | 18 | 103 | 0.0 | 9.7 | 0.00 | 0.00 | 0.00 | 21 | 1009.3 |